Location: Geyikbay?r?
(36.8756°N, 30.4583°E)
Time: 07:41:56
(UTC+00:00)

Cosmos 2227 Rocket - Pass Details

Date: 05 August 2024
Orbit: 839 x 843 km, 71.0° (Epoch: 10 September)

Event Time Altitude Azimuth Distance (km) Brightness Sun altitude
Rises 21:30:36 0° 336° (NNW) 3,398 6.3 -35.9°
Reaches altitude 10° 21:33:03 10° 336° (NNW) 2,460 5.3 -36.0°
Enters shadow 21:36:10 34° 332° (NNW) 1,346 3.6 -36.1°
